Miscellaneous Local Product
Issued by NWS Hastings, NE

Home | Current Version | Previous Version | Graphics & Text | Print | Product List | Glossary On
Versions: 1 2 3 4 5 6 7 8 9 10 11 12 13 14 15 16 17 18 19 20 21 22 23 24 25 26 27 28 29 30 31 32 33 34 35 36 37 38 39 40 41 42 43 44 45 46 47 48 49 50
000
AXUS43 KGID 142202
MISGRI

GID CWA HOURLY WEATHER ROUNDUP
NATIONAL WEATHER SERVICE HASTINGS NE
500 PM CDT SUN SEP 14 2014

NOTE: "FAIR" INDICATES FEW OR NO CLOUDS BELOW 12,000 FEET WITH NO
SIGNIFICANT WEATHER AND/OR OBSTRUCTIONS TO VISIBILITY.

...SOUTH CENTRAL NEBRASKA...

CITY           SKY/WX    TMP DP  RH WIND       PRES   REMARKS
GRAND ISLAND   PTSUNNY   71  52  50 S15       30.05S
HASTINGS       PTSUNNY   68  50  52 S14G20    30.04F
KEARNEY        PTSUNNY   70  54  56 SE18      30.04R
ORD            CLOUDY    66  53  63 SE8       30.03F
YORK           MOSUNNY   68  54  60 S10       30.05F
AURORA         PTSUNNY   70  49  48 SE12      30.05S
LEXINGTON      PTSUNNY   71  56  59 SE16G24   30.01F
HOLDREGE       PTSUNNY   68  53  57 SE14G23   30.01F
HEBRON         CLOUDY    70  49  48 SE9G17    30.05F

...NEBRASKA PANHANDLE...

CITY           SKY/WX    TMP DP  RH WIND       PRES   REMARKS
CHADRON        MOSUNNY   66  47  50 NE13      30.04F
ALLIANCE       SUNNY     72  54  53 N9        30.00F
SCOTTSBLUFF    MOSUNNY   70  51  51 NE12      30.01S
SIDNEY         MOSUNNY   76  51  41 MISG      30.02R

...WESTERN AND NORTH CENTRAL NEBRASKA...

CITY           SKY/WX    TMP DP  RH WIND       PRES   REMARKS
VALENTINE      CLOUDY    63  45  51 E12       30.06F
AINSWORTH      CLOUDY    61  48  62 NE9       30.05S
ONEILL         CLOUDY    66  53  63 E10       30.06S
BROKEN BOW     CLOUDY    70  53  54 SE13G24   30.02F
IMPERIAL       SUNNY     77  55  46 S18       29.97F
NORTH PLATTE   MOSUNNY   71  55  56 S12G20    30.00S
MCCOOK         MOSUNNY   75  57  53 SE14G22   29.98F

...EASTERN NEBRASKA...

CITY           SKY/WX    TMP DP  RH WIND       PRES   REMARKS
NORFOLK        MOSUNNY   68  50  52 S7        30.07F
SO SIOUX CITY  PTSUNNY   68  49  50 SW5       30.10S
TEKAMAH        PTSUNNY   70  50  49 SE9       30.08F
ALBION         SUNNY     69  50  50 S13       30.05F
OMAHA EPPLEY   PTSUNNY   71  48  43 S15       30.08F
LINCOLN        MOSUNNY   72  51  47 S13       30.07F
NEBRASKA CITY  SUNNY     71  41  34 S7        30.09F
BEATRICE       PTSUNNY   71  52  49 S10       30.07F
FALLS CITY     SUNNY     73  54  51 S9        30.09F

...NORTHERN KANSAS...

CITY           SKY/WX    TMP DP  RH WIND       PRES   REMARKS
GOODLAND       SUNNY     72  56  57 S10       30.01F
HILL CITY      MOSUNNY   80  58  46 SE8       29.98F
NORTON         PTCLDY    73  54  49 SE12G20   29.99F
PHILLIPSBURG   PTSUNNY   73  57  56 SE10      30.01F
SMITH CENTER   CLOUDY    70  55  60 SE13      30.04F
BELOIT         SUNNY     73  55  53 SE12      30.01F
HAYS           MOSUNNY   82  63  51 S14       29.98F
RUSSELL        MOSUNNY   79  60  52 S12       29.98F
CONCORDIA      PTSUNNY   71  56  58 S9        30.05S
SALINA         MOSUNNY   78  58  49 S13       30.04F
TOPEKA         CLOUDY    74  54  49 S14       30.09F



USA.gov is the U.S. government's official web portal to all federal, state and local government web resources and services.